Weather History for KDMA - August, 2013

Change the Weather History Date:

Friday, August 2, 2013

  Actual Average Record
Temperature  
Mean Temperature 84 °F -  
Max Temperature 91 °F 98 °F 107 °F (1993)
Min Temperature 77 °F 73 °F 66 °F (1965)
Cooling Degree Days 20    
Growing Degree Days 34 (Base 50)    
Moisture  
Dew Point 62 °F    
Average Humidity 48    
Maximum Humidity 58    
Minimum Humidity 36    
Precipitation  
Precipitation 0.00 in - - ()
Sea Level Pressure  
Sea Level Pressure 29.91 in    
Wind  
Wind Speed 8 mph (SSE)    
Max Wind Speed 18 mph    
Max Gust Speed 23 mph    
Visibility 10 miles    
Events Rain , Thunderstorm    
Averages and records for this station are not official NWS values.
T = Trace of Precipitation, MM = Missing Value Source: NWS Daily Summary

Daily Weather History Graph

Daily Weather History Graph

Search for Another Location

Airport or City:

Trip Planner

Search our weather history database for the weather conditions in past years. The results will help you decide how hot, cold, wet, or windy it might be!

Date:

Astronomy

Aug. 02, 2013 Rise Set
Actual Time 5:39 AM MST 7:19 PM MST
Civil Twilight 5:12 AM MST 7:46 PM MST
Nautical Twilight 4:40 AM MST 8:18 PM MST
Astronomical Twilight 4:07 AM MST 8:51 PM MST
Moon 2:05 AM MST (8/2) 4:17 PM MST (8/2)
Length of Visible Light 14h 33m
Length of Day
13h 40m
Waning Crescent, 15% of the Moon is Illuminated
Aug 2
Waning Crescent
Aug 6
New
Aug 14
First Quarter
Aug 20
Full
Aug 28
Last Quarter

Hourly Weather History & Observations

Time (MST) Temp. Heat Index Dew Point Humidity Pressure Visibility Wind Dir Wind Speed Gust Speed Precip Events Conditions
12:28 AM 82.4 °F 82.5 °F 59.0 °F 45% 29.98 in 10.0 mi ESE 11.5 mph - N/A   Mostly Cloudy
12:58 AM 82.2 °F 82.4 °F 59.4 °F 46% 29.84 in 10.0 mi ESE 10.4 mph - N/A   Scattered Clouds
1:53 AM 82.4 °F 82.5 °F 59.0 °F 45% 29.97 in 10.0 mi SE 6.9 mph - N/A   Scattered Clouds
1:58 AM 81.7 °F 81.8 °F 58.3 °F 45% 29.83 in 10.0 mi SE 6.9 mph - N/A   Mostly Cloudy
2:58 AM 81.3 °F 81.6 °F 58.5 °F 46% 29.83 in 10.0 mi ESE 5.8 mph - N/A   Mostly Cloudy
3:53 AM 78.8 °F - 59.0 °F 51% 29.95 in 10.0 mi ESE 6.9 mph - N/A   Scattered Clouds
3:58 AM 79.7 °F - 59.2 °F 49% 29.82 in 10.0 mi SE 6.9 mph - N/A   Scattered Clouds
4:58 AM 78.8 °F - 61.2 °F 55% 29.83 in 10.0 mi SE 8.1 mph - N/A   Partly Cloudy
5:08 AM 78.8 °F - 60.8 °F 54% 29.97 in 10.0 mi SE 8.1 mph - N/A   Mostly Cloudy
5:58 AM 78.1 °F - 62.1 °F 58% 29.86 in 10.0 mi SE 10.4 mph - N/A   Mostly Cloudy
6:08 AM 78.8 °F - 62.6 °F 57% 29.99 in 10.0 mi SE 10.4 mph - N/A   Scattered Clouds
6:58 AM 79.9 °F - 62.6 °F 55% 29.86 in 10.0 mi SE 6.9 mph - N/A   Partly Cloudy
7:53 AM 84.2 °F 85.0 °F 62.6 °F 48% 30.01 in 10.0 mi SSE 8.1 mph - N/A   Mostly Cloudy
7:58 AM 84.0 °F 85.2 °F 63.3 °F 50% 29.88 in 10.0 mi SSE 5.8 mph - N/A   Mostly Cloudy
8:58 AM 87.6 °F 88.8 °F 64.0 °F 45% 29.88 in 10.0 mi South 12.7 mph - N/A   Clear
9:58 AM 90.3 °F 91.2 °F 62.8 °F 40% 29.88 in 10.0 mi SSE 5.8 mph - N/A   Partly Cloudy
10:58 AM 90.1 °F 90.9 °F 63.0 °F 40% 29.88 in 10.0 mi WNW 2.3 mph - N/A   Clear
11:58 AM 90.7 °F 91.3 °F 62.2 °F 39% 29.86 in 10.0 mi Calm Calm - N/A   Clear
12:58 PM 91.2 °F 91.4 °F 61.5 °F 37% 29.84 in 10.0 mi Calm Calm - N/A Thunderstorm Partly Cloudy
1:04 PM 91.4 °F 91.4 °F 60.8 °F 36% 29.98 in 10.0 mi SSE 4.6 mph - N/A Rain Light Rain
1:07 PM 91.4 °F 92.1 °F 62.6 °F 38% 29.98 in 10.0 mi SE 4.6 mph - N/A   Partly Cloudy
1:53 PM 87.8 °F 88.5 °F 62.6 °F 43% 29.99 in 10.0 mi SSE 18.4 mph - N/A   Clear
1:58 PM 87.8 °F 88.8 °F 63.5 °F 44% 29.85 in 10.0 mi South 15.0 mph 23.0 mph 0.00 in Thunderstorm Clear
2:24 PM 84.2 °F 86.6 °F 66.2 °F 55% 30.01 in 10.0 mi South 11.5 mph - N/A Thunderstorm Thunderstorm
2:39 PM 82.4 °F 83.9 °F 64.4 °F 54% 30.00 in 10.0 mi South 9.2 mph - N/A   Partly Cloudy
2:58 PM 83.3 °F 84.6 °F 64.2 °F 52% 29.87 in 10.0 mi SSE 9.2 mph - N/A   Clear
3:12 PM 82.4 °F 83.4 °F 62.6 °F 51% 30.00 in 10.0 mi SSE 10.4 mph - N/A   Light Drizzle
3:58 PM 81.9 °F 83.5 °F 64.6 °F 56% 29.86 in 10.0 mi SSE 10.4 mph - 0.00 in Rain Light Rain
4:17 PM 82.4 °F 84.6 °F 66.2 °F 58% 29.98 in 10.0 mi SSE 8.1 mph - N/A   Clear
4:58 PM 85.5 °F 87.1 °F 64.9 °F 50% 29.84 in 10.0 mi ESE 5.8 mph - 0.00 in   Partly Cloudy
5:58 PM 86.5 °F 87.0 °F 62.4 °F 44% 29.85 in 10.0 mi South 3.5 mph - N/A   Partly Cloudy
6:58 PM 86.5 °F 86.8 °F 61.9 °F 43% 29.85 in 10.0 mi SSE 8.1 mph - N/A   Scattered Clouds
7:26 PM 86.0 °F 86.6 °F 62.6 °F 45% 29.98 in 10.0 mi SSE 4.6 mph - N/A   Light Drizzle
7:58 PM 84.6 °F 85.9 °F 64.0 °F 50% 29.86 in 10.0 mi SSE 6.9 mph - 0.00 in   Light Drizzle
8:10 PM 84.2 °F 85.6 °F 64.4 °F 51% 29.99 in 10.0 mi SSE 5.8 mph - N/A   Clear
8:58 PM 82.9 °F 84.6 °F 64.6 °F 54% 29.86 in 10.0 mi SSE 6.9 mph - 0.00 in   Clear
9:58 PM 82.2 °F 83.3 °F 63.0 °F 52% 29.88 in 10.0 mi South 9.2 mph - N/A   Partly Cloudy
10:58 PM 78.8 °F - 61.2 °F 55% 29.89 in 10.0 mi SSE 10.4 mph - N/A   Clear
11:58 PM 77.5 °F - 60.4 °F 55% 29.89 in 10.0 mi SE 8.1 mph - N/A   Partly Cloudy